Weather Roundup
Issued by NWS Springfield, MO

Home | Current Version | Previous Version | Text Only | Print | Product List | Glossary On
Versions: 1 2 3 4 5 6 7 8 9 10 11 12 13 14 15 16 17 18 19 20 21 22 23 24 25 26 27 28 29 30 31 32 33 34 35 36 37 38 39 40 41 42 43 44 45 46 47 48 49 50
660
NZUS99 KSGF 260907
HRRSGF

HOURLY WEATHER
NATIONAL WEATHER SERVICE SPRINGFIELD MO
400 AM CDT SUN MAR 26 2017

......SGF CWA......

CITY           SKY/WX    TMP DP  RH WIND       PRES   REMARKS
SPRINGFIELD    CLOUDY    47  43  86 W6        29.88R
JOPLIN         CLOUDY    47  45  93 W9        29.91S
WEST PLAINS    CLOUDY    48  45  89 W5        29.88F
ROLLA          CLOUDY    47  46  97 SW12      29.84F
OSAGE BEACH    CLOUDY   N/A N/A N/A SW6       29.86F
BRANSON        CLOUDY    46  46 100 W3        29.90S

......SURROUNDING SGF CWA......

CITY           SKY/WX    TMP DP  RH WIND       PRES   REMARKS
CHANUTE        CLOUDY    46  44  93 W6        29.92R
PARSONS        CLOUDY    47  45  93 W6        29.94R
COFFEYVILLE    CLOUDY    47  43  86 W5        29.93R
EMPORIA        CLOUDY    44  44 100 W5        29.91R
GROVE OK       CLOUDY    46  45  93 CALM      29.93S
ROGERS AR      CLOUDY    46  45  96 SW6       29.92R
SILOAM SPRINGS CLOUDY    45  41  87 SW3       29.92R
HARRISON AR    CLOUDY    48  45  89 W5        29.90S
NEAR YELLVILLE CLOUDY    52  41  66 CALM      29.88S

......KANSAS AND MISSOURI......

CITY           SKY/WX    TMP DP  RH WIND       PRES   REMARKS
KANSAS CTY INT CLOUDY    43  42  97 NW6       29.87S
DOWNTOWN KC    CLOUDY    45  42  89 W6        29.87S
COLUMBIA       CLOUDY    49  49 100 W7        29.83S FOG
SEDALIA        CLOUDY    49 N/A N/A NW6       29.86R
ST JOSEPH      CLOUDY    43  43 100 NW6       29.88S
ST LOUIS       CLOUDY    54  49  83 SW10      29.85F
SPIRIT OF STL  CLOUDY    52  49  89 SW5       29.84F
KIRKSVILLE     CLOUDY    46  45  96 NW7       29.80S
WICHITA        CLOUDY    44  43  96 CALM      29.89F FOG
TOPEKA         CLOUDY    44  42  93 W5        29.90R
OLATHE         CLOUDY    43  43 100 NW8       29.87S

......TENNESSEE......

CITY           SKY/WX    TMP DP  RH WIND       PRES   REMARKS
MEMPHIS        CLOUDY    60  58  92 S9        29.91F
NASHVILLE      LGT RAIN  57  56  96 S7        29.96F

......ARKANSAS.......

CITY           SKY/WX    TMP DP  RH WIND       PRES   REMARKS
FAYETTEVILLE   CLOUDY    47  46  97 W3        29.92R
FT SMITH       CLOUDY    48  44  86 CALM      29.92S
LITTLE ROCK    CLEAR     48  48 100 CALM      29.92F

......OKLAHOMA.......

CITY           SKY/WX    TMP DP  RH WIND       PRES   REMARKS
TULSA          MOCLDY    43  42  97 CALM      29.93R
PONCA CITY       N/A     43  39  86 NE5       29.91F
MCALESTER      PTCLDY    43  40  89 CALM      29.91F
OKLAHOMA CITY  PTCLDY    43  41  93 E8        29.88F

......IOWA............

CITY           SKY/WX    TMP DP  RH WIND       PRES   REMARKS
DES MOINES     LGT RAIN  42  41  96 N8        29.84F FOG
QUAD CITIES    FOG       48  47  96 E6        29.80F VSB 1/4

......ILLINOIS........

CITY           SKY/WX    TMP DP  RH WIND       PRES   REMARKS
QUINCY         CLOUDY    51  51 100 S13       29.78S FOG
CHICAGO        CLOUDY    47  45  93 NE6       29.88F FOG




USA.gov is the U.S. government's official web portal to all federal, state and local government web resources and services.